Location: Fort Worth, Tx
(32.7431°N, 97.3695°W)
Time: 08:42:27
(UTC-04:00)

deb Explorer IX - Visible Passes

Search period start: 24 July 2024 00:00
Search period end: 03 August 2024 00:00
Orbit: 509 x 877 km, 38.7° (Epoch: 23 July)

Date Brightness Start Highest point End Pass type
(mag) Time Alt. Az. Time Alt. Az. Time Alt. Az.
24 Jul ? 00:25:49 10° WNW 00:31:22 51° N 00:31:31 51° NNE visible
24 Jul ? 23:22:23 10° WNW 23:28:03 46° N 23:31:31 20° ENE visible
25 Jul ? 01:07:04 10° WNW 01:10:05 32° WNW 01:10:05 32° WNW visible
25 Jul ? 22:18:50 10° WNW 22:24:37 46° N 22:30:03 10° ENE visible
26 Jul ? 00:03:42 10° WNW 00:09:28 61° NNE 00:10:02 57° NE visible
26 Jul ? 01:48:20 10° WNW 01:48:36 11° WNW 01:48:36 11° WNW visible
26 Jul ? 23:00:15 10° WNW 23:06:03 51° N 23:09:55 19° ENE visible
27 Jul ? 00:44:49 10° WNW 00:48:30 40° WNW 00:48:30 40° WNW visible
27 Jul ? 21:56:40 10° WNW 22:02:30 47° N 22:08:04 10° ENE visible
27 Jul ? 23:41:21 10° WNW 23:47:17 75° NNE 23:48:21 58° E visible
28 Jul ? 01:26:12 10° W 01:26:55 13° W 01:26:55 13° W visible
28 Jul ? 22:37:50 10° WNW 22:43:48 59° NNE 22:48:10 17° E visible
29 Jul ? 00:22:25 10° WNW 00:26:44 45° W 00:26:44 45° W visible
29 Jul ? 23:18:47 10° WNW 23:24:48 86° SSW 23:26:32 47° ESE visible
30 Jul ? 01:04:00 10° W 01:05:06 14° W 01:05:06 14° W visible
30 Jul ? 22:15:13 10° WNW 22:21:17 70° NNE 22:26:19 14° ESE visible
30 Jul ? 23:59:53 10° WNW 00:04:53 40° SW 00:04:53 40° SW visible
31 Jul ? 22:56:03 10° WNW 23:02:03 66° SSW 23:04:40 33° SE visible
01 Aug ? 00:41:58 10° W 00:43:14 13° WSW 00:43:14 13° WSW visible
01 Aug ? 21:52:22 10° WNW 21:58:29 87° NNE 22:04:21 10° ESE visible
01 Aug ? 23:37:17 10° W 23:42:24 30° SW 23:43:01 29° SSW visible
02 Aug ? 22:33:11 10° WNW 22:38:59 49° SSW 22:42:49 20° SSE visible
